Theta_e
352 353 351 351 352 351 348 338 319 327 324 317 321 323 321 336 337 331 330 332 329 336 339 341 339 338 336 332 334 336 339 330 328 319 318 338 352 352 356 355 355 355 355 358 359 360 361 362 363 363 364 365 366 366 365 364 365 365 363 363 362 361 361 360 360 360 361 362 362 362 362 360 361 361 362 362 361 360 362 362 361 361 361 361 361 361 361 361 363 361 362 362 360 362 364 363 363
350 349 351 352 351 345 337 346 324 321 321 319 319 325 326 335 332 328 327 327 331 334 337 337 338 338 338 338 337 337 336 340 339 337 342 349 352 352 354 356 356 354 356 358 358 359 359 360 363 363 365 366 366 365 365 365 366 365 364 363 362 361 360 361 360 361 361 362 362 362 360 360 361 361 361 362 361 362 362 362 361 361 360 361 361 361 361 362 362 361 362 361 362 362 363 362 362
347 349 350 350 343 342 345 339 316 321 315 313 318 324 332 328 329 332 334 337 336 336 339 341 340 338 336 338 332 332 327 341 340 343 343 350 346 348 354 356 357 357 357 358 358 359 360 361 363 364 365 365 365 365 365 365 365 364 362 361 361 362 360 360 360 360 361 363 362 361 361 361 360 360 361 362 361 361 361 361 361 361 361 363 361 360 361 361 362 361 361 361 362 362 363 362 362
355 358 352 345 339 348 331 330 323 319 315 316 317 327 329 330 330 336 340 337 336 338 339 337 334 340 335 329 333 338 335 336 343 343 342 345 349 354 354 356 358 357 357 358 358 358 360 362 364 364 364 365 365 365 365 366 365 364 363 361 362 361 361 361 362 362 362 361 362 360 361 362 361 360 361 361 362 361 360 361 362 360 361 362 361 361 361 362 362 361 362 363 363 363 362 362 361
351 353 349 342 342 329 328 325 324 323 316 320 317 328 329 334 333 337 339 338 339 339 339 337 335 341 340 337 337 331 334 341 343 346 345 348 355 355 356 358 358 356 356 356 357 358 360 363 364 364 365 365 365 366 366 365 365 364 363 363 362 362 362 362 362 362 362 362 362 361 361 361 361 361 361 362 361 362 362 362 362 361 362 362 361 360 361 361 361 361 361 362 363 362 362 361 360
352 351 353 344 336 349 336 321 321 320 326 328 323 326 330 335 336 337 338 341 342 340 339 338 333 333 333 335 339 334 342 333 343 345 347 348 353 355 356 357 355 355 356 357 356 359 361 364 365 364 365 365 366 365 366 365 365 364 363 363 362 362 362 362 361 362 362 362 362 362 361 362 362 362 361 360 361 361 361 363 362 362 362 361 361 362 362 361 360 360 362 362 363 362 362 361 361
347 346 344 345 342 342 322 321 320 324 327 332 328 331 332 336 338 336 335 337 340 341 340 334 336 334 330 337 339 344 346 346 343 346 351 353 354 355 356 355 354 354 355 355 357 360 362 364 365 365 366 366 365 364 365 365 364 364 363 363 362 362 362 362 361 361 361 361 361 361 361 362 362 361 362 361 362 362 361 362 362 362 361 361 361 361 361 362 361 361 362 361 362 362 362 362 362
350 340 341 331 326 330 321 324 322 327 326 333 334 335 335 338 339 336 334 336 334 331 335 336 337 334 331 342 331 343 346 348 348 351 353 353 354 354 355 354 354 355 354 356 358 361 367 366 365 365 366 366 364 363 364 364 363 363 363 362 362 362 362 361 362 362 362 361 361 362 361 363 362 361 361 362 361 361 361 360 361 362 361 361 362 360 361 360 360 361 362 361 362 362 362 362 362
346 342 352 331 323 328 323 322 324 330 329 333 336 340 341 340 339 337 333 336 339 336 334 335 336 329 331 335 335 342 344 348 351 353 351 351 352 354 355 355 353 353 354 356 359 362 362 365 365 365 366 364 364 364 365 364 363 363 363 362 362 362 361 361 362 362 362 362 361 361 361 362 362 363 363 362 361 362 362 362 362 362 361 361 362 362 362 362 361 362 361 361 362 361 361 361 361
341 344 330 329 328 319 323 322 323 327 327 335 335 337 338 341 338 339 334 336 334 338 337 338 338 332 336 332 335 339 342 347 349 350 352 353 353 352 351 352 353 354 354 356 358 360 361 366 364 365 365 365 365 365 364 364 363 362 363 362 361 362 362 362 362 362 362 361 361 362 362 363 363 363 362 363 362 362 362 361 361 362 362 361 361 362 361 362 361 362 361 361 361 362 361 361 362
333 342 344 325 321 319 318 320 322 327 330 334 335 339 342 343 340 336 335 335 339 336 337 339 333 333 335 335 337 344 345 346 344 344 350 353 354 353 352 354 354 356 354 357 357 357 360 362 367 366 366 365 365 364 364 364 363 363 363 362 362 362 362 362 362 361 362 363 362 362 363 363 363 363 362 363 362 362 362 361 363 362 361 361 361 361 361 362 362 361 362 362 362 362 362 361 362
333 335 334 321 321 319 323 321 323 326 330 333 334 340 343 341 342 335 335 334 337 336 335 337 333 338 333 333 335 341 343 342 343 346 348 351 352 354 354 353 355 355 354 353 351 351 357 362 363 367 366 365 366 365 364 364 364 364 363 363 363 363 363 362 362 362 362 362 362 362 362 362 362 362 362 362 362 362 362 361 361 363 362 362 362 361 362 362 362 362 362 362 363 363 363 363 362
336 336 328 323 324 325 324 323 324 327 326 328 331 338 344 340 337 336 335 336 334 335 334 340 341 339 330 332 339 341 339 342 345 347 348 349 350 353 352 354 355 354 351 348 345 350 356 360 362 363 365 366 365 364 364 364 364 363 363 362 363 363 363 363 362 362 360 360 362 362 361 362 362 362 362 362 362 362 362 362 362 363 363 362 362 362 362 362 362 363 363 363 363 363 364 363 362
338 338 331 321 331 323 324 324 327 322 324 330 337 341 341 337 339 340 338 333 333 334 338 341 340 338 333 335 335 336 339 344 345 347 349 350 353 352 353 355 353 349 345 345 348 353 357 359 360 362 363 362 362 363 363 363 362 362 363 363 363 363 362 363 362 362 362 362 362 362 362 362 362 363 363 362 363 362 362 362 362 362 362 362 362 362 362 362 363 363 363 362 363 363 364 363 362
339 344 332 325 324 324 326 324 322 322 322 331 334 339 339 341 342 343 339 333 334 344 345 345 342 337 328 332 332 336 341 345 348 349 348 349 352 353 353 354 349 344 344 346 351 353 355 357 359 361 364 360 362 361 363 361 363 363 363 363 363 363 363 363 363 363 362 362 362 363 362 362 362 362 363 363 363 364 363 362 363 363 363 363 362 363 363 363 363 363 363 363 362 363 364 363 362
344 342 333 324 322 321 324 325 326 323 323 333 336 339 338 342 344 340 341 341 339 343 347 337 343 338 337 336 337 341 345 347 349 349 350 349 350 352 353 351 347 344 345 349 350 351 355 357 358 359 360 361 360 361 362 362 363 363 364 363 364 364 363 362 362 363 363 363 363 362 363 362 362 361 364 361 362 362 362 362 363 363 363 363 363 364 364 363 363 363 363 363 363 363 363 363 363
344 341 328 324 320 323 325 329 325 319 329 334 339 337 334 335 343 345 350 347 339 340 345 341 340 343 339 340 343 346 348 351 351 349 349 349 348 347 349 349 346 344 345 347 350 352 354 357 359 359 360 359 360 362 361 361 362 364 363 364 364 362 361 362 363 363 363 363 362 362 362 361 363 362 361 360 362 361 363 363 363 364 364 363 363 363 363 363 363 363 363 363 363 363 363 363 362
342 332 325 322 324 322 327 327 331 333 331 335 336 338 337 333 340 343 347 343 344 342 345 341 341 342 344 345 346 347 347 348 348 345 344 345 346 344 344 346 344 342 344 347 352 352 356 359 360 360 360 361 361 361 361 361 362 364 363 363 363 362 362 363 363 362 364 362 363 362 362 361 362 363 364 363 361 361 361 363 364 365 363 363 363 364 364 363 363 363 363 363 363 363 363 360 363
336 331 327 322 324 328 334 333 335 334 333 337 338 340 339 337 341 343 337 337 340 337 340 337 336 340 343 344 344 343 345 346 345 344 343 342 341 340 341 342 342 342 343 348 351 353 357 358 358 359 360 360 360 361 360 361 362 364 364 363 362 364 364 363 362 363 363 363 363 362 366 363 361 363 364 361 360 362 361 363 364 365 365 364 363 364 364 364 363 363 363 363 364 364 364 362 361
337 331 322 323 331 332 336 337 338 339 340 337 337 339 339 340 342 346 338 336 340 335 334 337 336 336 339 341 342 342 344 344 345 344 343 342 341 340 340 340 341 344 344 347 351 355 356 357 358 359 361 360 360 360 360 360 363 364 362 364 364 364 363 363 362 363 363 362 362 364 365 362 363 366 362 363 363 361 362 364 365 366 365 365 364 363 364 364 363 363 364 363 363 364 364 358 355
336 331 323 327 333 331 336 338 338 340 342 339 338 340 338 341 342 343 339 334 334 338 339 335 334 337 338 340 341 342 342 343 344 344 342 341 341 341 342 344 346 347 347 349 351 353 355 355 359 360 360 360 361 361 359 361 361 361 362 363 363 364 364 361 362 361 360 362 363 364 362 360 361 363 363 362 361 362 361 362 363 362 363 364 364 364 365 364 364 364 363 364 364 363 362 361 353
332 329 331 332 330 331 335 338 338 340 341 340 339 336 335 343 343 341 339 332 330 335 340 340 341 340 339 338 340 342 341 342 343 342 342 341 340 340 342 344 348 349 350 347 348 353 355 356 357 359 360 360 360 362 361 361 362 359 360 363 363 361 362 362 361 360 361 362 362 360 359 360 361 360 364 364 364 366 362 361 362 364 363 364 365 364 363 365 363 361 363 362 363 361 360 361 362
323 331 331 332 332 328 335 340 339 339 340 339 337 339 341 340 337 341 339 336 339 344 346 342 342 342 342 341 341 340 340 341 342 341 341 341 340 341 342 345 347 348 349 348 348 354 356 359 358 358 360 361 361 363 363 365 364 360 362 362 360 359 362 359 361 357 358 357 360 364 357 359 360 360 361 362 359 364 366 365 364 365 364 363 364 363 361 362 362 361 362 361 360 350 351 355 364
329 327 330 332 331 328 337 337 340 339 338 338 343 343 339 338 332 338 336 340 343 344 348 344 343 343 342 340 340 339 340 341 341 342 342 342 342 343 344 345 348 350 352 348 347 350 356 357 359 359 360 358 358 361 361 360 361 362 362 363 361 359 357 357 357 354 355 361 362 361 362 360 359 359 361 358 355 358 357 360 360 361 362 362 364 362 361 362 363 361 358 360 368 359 350 360 355
326 328 330 329 330 329 339 339 338 340 341 343 341 337 338 339 338 340 337 342 344 348 346 344 343 343 341 340 339 339 339 340 340 341 343 344 344 345 346 347 347 349 349 348 347 346 351 357 358 360 360 359 358 358 358 360 360 359 358 359 361 361 355 355 356 356 357 360 358 361 365 358 358 359 358 356 355 353 358 359 364 361 357 360 359 360 360 362 361 361 367 363 369 368 361 355 359
327 327 330 329 329 329 335 336 340 341 339 342 339 337 338 341 343 337 340 343 345 346 342 343 343 341 339 339 339 339 339 339 340 340 341 343 343 343 344 346 346 346 348 349 346 346 349 354 357 357 360 361 359 356 357 358 358 360 359 361 358 360 353 355 358 356 353 359 359 364 359 358 359 364 355 356 356 352 356 354 355 356 355 359 359 359 370 369 364 366 367 369 359 364 362 360 360
328 328 328 328 329 328 327 336 337 340 340 339 336 336 337 342 340 330 340 344 345 341 340 340 340 339 340 339 339 340 339 340 340 341 341 341 342 342 343 344 343 345 348 348 346 346 349 351 354 358 359 364 360 357 357 356 358 359 358 357 359 358 358 362 360 356 358 359 360 363 365 365 354 356 359 360 356 356 355 356 356 356 361 362 366 364 366 364 367 366 367 371 364 368 367 363 364
325 326 327 327 328 328 327 332 333 338 336 341 338 334 338 340 339 332 338 343 343 339 339 339 338 337 339 339 339 340 340 340 340 340 338 339 338 341 342 342 342 343 345 345 346 347 345 352 355 357 360 361 360 356 361 360 359 358 361 361 356 358 366 358 358 359 361 360 362 363 368 365 365 364 367 362 360 363 362 363 363 364 362 366 367 361 366 366 368 367 369 371 366 368 361 362 364
323 326 321 323 326 323 325 331 332 336 333 341 340 334 330 333 331 339 342 343 342 337 337 338 337 337 338 339 338 338 338 339 339 339 339 340 340 341 340 342 342 341 345 345 347 345 343 349 353 355 357 361 360 356 356 358 358 355 358 358 360 358 362 361 357 357 362 363 368 363 366 363 357 357 363 365 365 360 363 359 360 364 369 370 365 363 364 367 365 366 370 366 370 364 361 365 356
320 324 322 320 321 319 328 333 336 335 337 341 337 317 324 330 335 341 342 339 341 335 335 336 335 336 337 337 336 337 337 338 337 338 340 340 340 341 340 341 343 342 344 346 346 342 345 351 353 354 357 357 359 356 360 358 358 358 360 358 363 363 358 359 360 361 364 366 366 371 369 368 367 370 367 365 364 363 362 364 362 364 367 367 369 368 365 365 364 364 360 364 363 365 357 359 365
313 320 323 317 316 314 328 332 334 333 339 338 337 319 322 330 336 340 342 341 339 333 334 333 334 335 336 336 335 336 336 338 337 338 340 340 341 340 340 341 341 342 344 344 343 343 348 351 353 353 356 355 356 358 356 358 358 356 356 357 360 363 359 358 355 359 363 364 367 370 371 369 370 372 368 371 364 370 363 359 364 366 368 370 369 370 371 366 367 365 366 362 368 362 358 363 355
317 314 312 317 314 316 325 333 332 329 334 339 333 320 322 329 335 342 341 340 338 333 333 334 334 335 335 335 335 335 336 337 337 339 339 339 340 339 339 340 340 342 343 343 344 345 348 350 353 353 354 354 356 358 359 360 357 360 358 358 360 365 363 361 358 359 361 361 366 370 371 371 371 370 372 371 365 364 361 364 366 368 368 374 367 372 374 366 367 369 367 362 363 356 362 355 362
316 312 311 312 315 316 321 328 332 335 335 336 331 322 330 329 336 340 343 340 337 338 333 334 334 335 335 334 335 336 335 336 336 338 339 337 339 340 339 340 340 342 342 342 344 346 349 349 352 350 352 353 356 355 359 361 363 361 359 355 356 359 358 357 359 361 361 360 363 367 371 370 370 373 373 372 371 365 362 362 363 365 368 370 368 375 367 367 365 354 368 369 368 364 356 347 355
310 313 310 315 312 314 317 326 334 333 332 327 329 326 329 332 334 340 340 341 338 333 338 335 334 334 336 334 335 336 335 336 335 338 337 338 339 340 340 344 342 343 343 344 345 345 347 349 350 350 352 354 356 359 362 360 360 365 360 360 363 358 354 355 358 360 360 360 363 367 371 372 372 370 370 373 371 364 366 366 365 369 369 369 374 368 366 364 366 364 369 369 367 363 357 354 355
309 310 309 311 315 316 318 318 327 330 331 327 326 326 327 333 334 336 339 338 338 335 333 334 338 335 336 334 335 336 336 336 334 339 337 339 340 340 340 341 341 343 342 344 345 350 350 351 353 356 353 355 356 362 365 363 362 365 357 358 357 362 362 357 358 358 359 361 359 366 372 371 372 369 371 372 368 370 364 365 368 369 369 373 371 366 366 366 364 362 360 369 371 367 363 363 358
311 312 311 312 311 313 316 321 328 327 324 325 324 322 324 328 331 334 338 340 337 337 338 335 334 334 336 335 335 336 336 336 337 339 338 340 340 339 339 342 342 343 344 346 349 349 351 352 352 356 356 354 358 360 361 358 357 358 353 355 355 359 359 359 361 358 361 360 361 365 371 370 372 373 371 369 368 370 368 367 366 366 369 368 367 364 363 364 363 362 362 357 366 367 365 357 363
314 313 313 313 313 314 320 323 327 330 325 323 323 325 324 327 330 334 337 339 339 337 335 334 336 337 335 335 335 335 337 337 338 340 338 340 340 340 340 342 342 343 348 347 346 346 346 349 352 353 354 358 357 358 357 355 352 356 355 349 351 353 359 358 358 357 356 361 362 364 369 369 371 371 372 370 366 369 370 368 370 366 368 370 367 366 363 363 369 369 372 372 362 365 359 356 358
311 311 311 310 313 310 318 322 327 328 323 322 325 325 324 326 328 334 336 336 334 336 336 335 335 337 340 338 335 335 338 339 338 339 338 340 339 340 341 342 344 340 346 345 345 346 347 348 349 351 354 357 358 357 358 356 358 356 352 349 347 351 357 358 362 357 357 358 367 369 369 367 369 370 368 365 372 369 370 367 367 369 369 371 370 369 366 365 366 367 364 365 365 361 361 352 349
311 310 310 310 311 314 326 324 326 326 324 321 323 321 323 325 329 334 335 335 339 341 336 337 336 336 337 337 341 338 336 336 338 339 338 340 340 340 340 342 342 343 344 342 345 348 347 351 354 355 354 355 357 357 359 360 360 362 355 353 349 350 355 356 357 358 359 359 361 365 370 369 371 370 368 369 369 368 370 373 368 367 368 369 370 367 369 366 369 362 365 363 362 361 362 356 359
309 310 309 308 313 311 310 324 326 324 321 321 322 319 321 326 329 331 335 334 337 340 341 340 340 337 335 338 340 339 336 336 336 338 338 339 339 341 339 341 342 343 346 343 344 347 345 355 357 358 357 357 359 360 360 360 360 365 366 362 361 356 354 358 363 363 363 358 356 363 370 371 370 364 364 364 367 367 367 369 368 364 371 369 370 367 367 364 367 368 360 361 361 355 350 355 357
310 311 312 311 312 313 312 313 321 323 321 321 321 317 318 323 322 326 330 335 336 335 337 341 343 346 343 344 342 341 338 338 337 338 339 340 338 341 340 343 341 342 344 344 344 346 345 350 356 358 359 358 361 361 359 365 364 365 366 364 366 364 360 361 357 355 359 360 355 358 361 367 369 366 365 365 367 370 370 370 367 368 369 368 368 366 367 362 362 365 365 370 360 357 352 355 358
309 312 313 314 314 313 314 314 313 312 313 317 319 309 309 319 322 323 324 331 333 337 335 338 341 343 343 338 338 343 344 342 340 337 339 339 340 342 342 343 340 342 344 344 346 344 346 350 355 360 360 360 358 361 363 365 364 363 364 361 359 357 358 357 355 354 352 354 350 353 359 360 361 366 368 367 369 368 369 371 368 365 366 370 372 367 364 363 365 363 363 359 358 363 363 361 350
307 309 315 315 315 314 313 312 310 306 304 315 321 308 305 316 317 321 324 326 328 332 335 335 338 341 341 340 339 341 343 341 340 340 340 339 340 341 342 342 341 342 344 346 346 346 348 351 356 358 359 360 358 362 364 365 362 362 360 353 354 356 357 355 363 357 357 355 357 355 359 360 365 362 363 367 367 370 369 371 369 368 369 366 366 365 365 357 357 360 360 366 364 368 370 363 355
306 314 315 315 313 312 312 312 311 309 314 315 316 312 308 308 314 321 325 326 325 328 331 333 337 340 340 340 339 340 341 343 342 340 340 340 340 341 342 343 342 343 345 346 345 346 350 355 357 358 360 361 359 362 364 365 363 363 361 358 356 357 352 358 360 363 360 362 365 357 358 359 364 366 365 370 369 370 371 370 373 371 368 368 371 370 366 359 367 369 370 367 371 377 374 363 361
309 313 313 312 313 312 311 311 310 311 308 306 309 313 309 309 318 325 324 321 320 322 330 333 335 337 339 340 343 345 347 345 343 343 341 341 340 341 343 344 344 346 346 346 345 348 351 356 359 359 359 361 362 363 363 363 365 364 361 358 360 360 358 358 360 361 368 363 362 367 365 360 366 369 369 368 370 369 372 371 371 372 369 364 365 364 362 359 362 365 369 369 368 367 365 369 370
312 314 315 313 312 313 314 311 309 310 307 302 308 311 304 308 318 320 324 322 321 324 327 332 333 335 335 337 341 344 346 346 346 346 345 345 342 342 343 345 345 345 348 349 346 347 348 354 359 359 360 360 362 363 363 364 365 365 362 361 360 360 361 360 360 361 364 366 364 364 369 372 361 363 368 369 370 370 369 371 368 367 366 364 362 368 362 364 366 370 367 363 367 367 379 371 360
314 313 312 311 310 311 313 312 310 308 302 304 309 310 308 305 314 316 317 320 323 323 329 332 334 336 338 341 339 342 344 346 347 346 348 345 344 344 344 344 346 346 349 349 347 347 348 350 356 358 360 359 362 363 363 362 363 363 361 362 361 359 361 362 362 360 366 365 364 360 365 369 370 361 362 369 368 367 366 370 364 364 366 366 367 367 364 360 360 362 361 368 370 370 367 368 368
313 311 310 309 308 310 309 308 310 301 299 306 310 310 309 303 311 317 322 326 326 326 326 329 331 334 339 341 340 342 345 346 346 347 347 349 348 345 346 346 346 348 348 348 347 349 349 352 355 358 360 361 361 362 362 360 360 361 362 362 362 363 362 358 360 359 360 362 360 363 367 367 369 365 366 364 363 360 368 367 368 367 369 366 365 366 367 366 362 364 368 372 368 371 372 376 365
310 310 309 303 301 302 297 302 298 299 299 307 310 310 307 309 315 319 321 325 326 329 328 330 330 332 335 340 344 343 344 344 347 348 351 348 347 347 343 348 352 354 353 350 349 352 349 353 357 356 359 361 361 362 362 362 361 361 361 361 362 365 364 365 363 361 361 362 363 362 366 367 367 366 366 360 360 361 367 369 367 365 367 368 371 371 369 372 370 364 370 362 367 367 367 369 370
308 306 306 302 297 296 293 297 301 301 304 309 309 312 306 314 318 323 323 325 328 329 330 332 334 334 336 339 340 343 346 344 345 348 350 351 351 350 348 349 349 350 350 350 349 354 354 354 358 355 359 361 363 363 362 362 361 363 364 362 362 365 364 364 364 359 357 363 364 363 358 358 364 361 360 365 361 361 364 366 368 369 370 368 370 367 372 372 371 368 365 370 361 371 374 370 369
309 312 308 304 303 298 294 297 295 297 301 305 309 306 306 308 311 325 325 326 328 329 330 332 336 337 337 340 340 340 343 344 344 348 349 349 350 350 349 349 347 349 348 348 351 354 359 357 360 359 360 361 363 363 363 362 360 362 363 362 363 363 361 361 364 363 362 360 356 357 363 359 358 360 363 367 369 368 367 368 368 368 370 371 370 369 369 372 372 369 371 367 377 365 370 370 367
311 311 311 306 304 308 299 301 300 300 299 300 304 304 314 314 322 325 327 327 327 328 329 331 332 335 337 338 338 340 341 344 347 347 348 348 350 352 352 352 355 352 352 350 350 355 354 360 361 362 361 361 362 364 363 362 362 362 365 364 363 364 363 361 365 367 368 362 361 361 363 368 361 364 364 366 363 365 366 366 367 365 370 368 371 372 370 370 372 370 372 370 368 363 368 367 369
308 308 303 307 312 309 304 305 306 305 302 300 312 309 314 319 321 322 324 324 324 326 327 329 331 334 336 335 337 338 340 341 343 346 344 347 349 350 350 352 351 352 351 350 354 352 354 359 361 362 363 360 362 364 363 363 363 363 363 362 361 362 359 358 356 359 357 359 363 361 359 357 361 367 361 362 362 368 369 367 365 361 369 369 370 371 369 371 373 371 365 371 365 361 366 368 369
308 303 307 314 315 312 306 298 302 300 296 299 310 307 307 310 305 321 320 320 322 322 323 326 328 331 331 331 333 338 337 341 343 344 347 346 348 350 350 351 351 351 352 353 350 349 351 355 355 356 355 357 359 361 360 361 363 362 363 362 363 361 358 356 356 357 357 359 361 362 359 359 357 355 357 356 363 363 367 367 367 367 364 365 366 365 368 369 373 373 368 371 370 369 370 370 372
308 307 314 305 300 300 306 302 295 295 295 297 308 309 309 312 310 316 316 318 319 321 324 324 324 326 328 330 330 333 341 338 339 343 344 346 348 351 354 353 354 354 354 351 350 352 351 354 356 350 347 357 359 362 361 363 363 359 359 361 360 360 359 358 357 360 360 358 355 357 356 358 355 360 365 370 364 360 364 365 369 365 367 366 367 365 368 369 369 369 366 365 367 371 370 371 374
313 313 307 310 306 304 301 303 305 302 296 298 302 309 305 315 315 318 317 319 319 320 322 322 324 325 326 328 329 331 336 339 342 343 342 346 347 349 353 354 352 354 354 353 350 350 350 355 355 353 354 362 364 364 361 357 361 357 358 362 364 364 363 360 360 359 355 355 356 356 357 354 356 356 357 362 363 360 360 360 358 359 359 359 361 361 363 367 367 366 364 360 363 368 367 368 365
304 304 303 306 306 310 308 307 304 301 300 298 300 300 306 314 321 320 318 320 321 322 321 322 323 324 325 326 328 330 334 336 337 339 341 344 347 350 348 353 356 355 352 350 350 352 352 354 356 356 356 360 359 361 363 362 363 365 366 360 360 360 359 358 355 355 355 356 356 358 355 355 358 356 357 355 359 362 362 361 359 360 358 361 365 363 363 367 367 368 368 369 366 367 368 366 368
305 304 303 305 303 301 298 298 307 305 301 296 300 300 309 316 323 321 320 321 322 322 322 322 323 324 325 326 328 329 332 335 335 336 335 336 340 347 349 350 352 354 352 349 353 356 354 352 352 352 355 354 354 354 353 361 365 363 363 360 356 356 357 359 355 352 353 354 355 355 359 358 354 358 358 353 358 356 360 361 358 360 361 360 365 368 359 361 364 365 364 359 360 369 367 367 368
Wind_Speed
9 10 10 11 9 7 7 3 4 2 3 3 1 3 2 1 4 3 3 8 3 8 6 7 11 10 10 8 13 11 12 4 3 4 8 8 11 13 14 17 16 15 15 12 11 10 11 10 12 12 12 11 10 10 12 13 15 16 15 14 13 13 13 12 12 11 11 11 12 14 13 12 11 11 11 13 14 13 12 12 12 12 11 11 12 14 13 14 13 15 14 17 15 15 16 16 16
10 12 12 10 8 4 2 3 2 2 2 3 0 3 4 3 2 7 9 7 5 6 8 9 13 14 19 16 14 19 18 15 18 16 13 13 16 13 16 16 17 17 14 12 12 12 11 11 11 13 12 10 11 12 13 15 16 16 15 14 13 13 13 12 12 10 11 12 13 13 12 12 11 12 10 12 13 12 12 12 11 10 12 12 12 12 14 15 14 14 14 16 15 14 16 17 17
10 10 9 8 1 1 4 1 4 1 3 2 1 3 3 3 4 4 5 3 11 11 12 11 12 10 15 13 17 19 11 17 24 19 14 16 16 12 17 16 16 16 15 12 12 11 10 11 9 11 12 12 12 13 14 15 15 14 14 14 13 12 11 11 12 12 12 13 13 13 13 12 12 10 10 13 14 13 12 11 10 11 12 12 12 13 14 14 15 14 15 15 15 13 16 16 16
10 7 9 3 1 5 3 2 4 5 2 2 1 6 6 6 8 5 1 9 9 12 9 9 9 11 18 20 17 20 15 13 16 18 13 12 9 14 16 16 16 14 13 11 11 11 10 11 10 11 12 13 13 13 15 14 14 14 14 14 12 12 13 12 12 11 12 13 13 13 13 10 11 11 11 13 13 13 11 11 12 11 12 12 13 14 14 14 14 15 15 14 14 14 16 16 17
10 10 6 4 2 3 2 1 2 1 3 2 3 3 6 7 8 4 4 9 11 11 10 12 11 11 14 14 9 9 13 17 15 13 14 14 16 14 16 16 14 13 13 13 12 12 11 13 11 11 12 13 13 15 14 13 14 14 14 13 12 12 12 12 12 12 12 12 13 11 11 11 10 12 12 14 13 11 11 12 12 11 12 12 12 13 14 14 14 14 16 15 14 14 15 15 15
9 8 9 4 3 3 2 3 2 3 3 2 4 5 10 8 7 8 6 9 10 10 9 9 12 12 13 14 10 14 15 10 13 13 17 17 19 19 17 15 14 14 13 12 12 11 11 12 10 12 12 13 14 14 13 13 13 13 13 12 12 12 13 13 12 12 11 11 11 11 11 11 12 12 13 14 11 11 11 11 11 12 12 12 13 13 14 14 13 14 14 15 14 14 15 14 14
5 6 5 2 3 1 3 2 1 2 1 3 4 5 11 11 8 13 11 10 8 9 14 15 18 18 14 11 17 10 13 17 13 14 14 19 19 18 17 15 14 15 15 13 12 12 13 10 12 13 13 14 14 15 14 13 13 13 13 12 11 12 12 12 12 12 13 11 11 11 12 12 12 12 11 12 12 12 12 12 12 12 13 13 13 14 14 14 15 14 15 15 15 15 15 14 13
7 5 2 3 4 2 4 2 1 5 1 2 4 7 9 8 9 9 11 9 9 10 12 14 13 15 17 13 15 14 18 14 19 20 22 18 18 18 17 15 15 15 15 14 12 11 13 11 14 13 14 14 15 14 14 13 13 13 13 12 12 12 12 12 12 12 12 12 11 12 12 12 12 11 10 11 13 12 13 13 13 12 12 13 13 13 14 15 15 15 15 16 15 15 14 14 14
5 3 3 2 5 2 2 2 2 1 5 3 6 6 8 6 6 9 12 7 6 10 14 17 16 17 14 18 13 15 17 23 23 22 21 22 21 20 13 16 16 15 16 14 13 12 12 14 14 14 14 14 15 15 14 13 13 13 12 12 12 12 13 12 12 11 11 11 12 12 13 12 11 11 11 12 12 13 13 13 14 14 13 14 14 14 14 15 16 15 15 15 15 14 14 13 13
3 2 3 2 5 5 2 1 2 2 6 7 9 7 9 8 7 6 8 9 2 11 12 14 16 20 18 19 17 16 15 25 25 22 20 20 20 19 19 19 19 19 17 15 13 12 10 14 14 14 14 14 15 15 14 13 12 13 13 12 12 12 12 12 12 12 11 11 12 12 12 12 11 11 12 12 12 13 13 14 14 14 14 14 15 15 15 15 15 16 16 15 14 14 13 13 12
4 2 3 4 3 6 0 4 3 4 6 4 7 1 5 6 6 10 8 1 6 9 15 19 18 19 17 13 12 15 23 24 24 23 22 19 17 18 18 18 18 19 18 17 14 13 11 11 15 14 14 14 15 15 14 13 13 13 12 12 13 13 13 11 12 12 12 11 11 12 12 11 11 11 12 12 12 13 13 14 14 14 14 15 15 15 16 16 15 16 15 15 14 13 13 12 11
4 1 2 5 2 3 2 4 6 3 6 7 8 5 1 6 6 9 4 7 5 7 13 13 13 19 18 15 13 16 21 21 22 22 23 21 16 17 17 14 18 18 18 17 16 13 12 11 10 13 14 15 14 14 14 14 13 12 12 12 12 13 12 12 12 13 12 11 11 11 12 11 11 11 12 12 12 13 14 14 14 13 14 14 15 15 15 15 15 15 15 14 13 12 12 11 9
3 2 2 5 5 2 3 3 6 7 7 5 6 1 2 6 8 11 6 5 6 3 2 14 19 15 17 14 11 18 20 20 19 20 23 18 18 16 17 16 17 18 18 17 16 15 15 12 11 10 12 16 14 14 13 13 12 12 12 13 13 13 12 12 12 12 12 10 11 11 11 11 11 11 11 11 12 13 14 14 14 14 14 15 15 14 15 15 15 15 14 13 12 11 10 9 8
3 2 2 5 3 4 2 3 6 7 4 5 3 2 2 3 8 8 7 9 6 2 8 18 14 18 18 16 14 14 16 19 20 19 18 22 15 18 18 16 18 18 17 17 16 15 13 12 11 11 12 12 11 12 14 13 12 13 13 12 13 12 12 12 12 12 12 12 12 11 11 11 11 11 11 11 12 13 14 14 14 14 14 14 15 15 14 14 13 13 13 12 11 11 10 9 7
1 2 1 3 3 3 6 3 7 7 5 5 1 2 5 4 7 5 6 10 6 5 11 1 16 14 13 19 16 15 17 20 19 18 18 20 18 17 19 15 16 17 16 16 15 14 13 13 12 10 9 10 10 8 8 10 13 12 12 12 12 12 12 12 12 11 11 11 12 12 11 10 11 12 11 12 12 13 13 13 14 13 13 14 14 14 13 12 12 12 11 11 10 10 9 8 6
6 3 3 1 3 3 4 4 7 7 5 6 4 2 8 5 4 6 5 3 3 4 3 5 12 7 18 15 20 22 22 21 18 19 19 19 17 15 16 16 15 16 14 15 14 13 13 13 11 11 10 10 10 9 9 9 11 12 13 12 12 12 12 12 13 11 10 10 11 11 12 10 10 9 12 10 12 13 13 12 13 12 13 13 13 13 12 12 11 11 11 10 10 9 8 7 6
5 4 3 2 3 1 5 2 1 6 8 7 5 5 7 7 4 5 3 3 1 3 5 9 8 18 16 17 22 24 22 20 20 21 20 15 12 12 11 11 11 13 11 13 12 12 14 12 12 10 10 12 10 10 9 9 9 12 11 12 12 11 12 13 12 11 12 11 9 10 9 7 6 5 6 8 10 9 11 12 12 12 12 12 12 12 12 11 11 10 9 9 8 8 8 7 6
7 2 2 5 1 8 3 3 4 11 11 10 10 7 8 9 5 4 7 2 2 4 3 9 16 14 19 20 22 23 21 20 19 21 18 16 12 12 11 11 12 12 13 12 12 14 12 11 11 10 9 10 11 8 7 8 8 9 9 8 8 9 10 11 9 7 8 7 9 6 3 4 4 4 4 9 6 9 10 13 12 12 12 12 12 11 10 9 9 9 8 7 7 7 8 4 4
3 2 3 3 5 8 8 9 10 8 9 9 7 4 7 8 6 3 5 5 4 5 4 12 16 20 21 22 23 22 23 21 20 19 20 19 16 17 14 11 12 13 12 12 11 13 11 10 10 9 10 12 11 9 8 7 8 7 8 7 7 9 8 7 6 6 5 5 5 5 3 3 4 4 4 6 7 11 10 11 12 11 10 10 10 10 9 9 8 7 8 7 7 8 5 3 3
2 1 3 2 8 11 11 11 8 10 11 9 7 4 5 7 4 3 5 7 5 6 6 7 18 22 23 22 22 22 21 20 19 18 18 17 16 16 15 14 13 11 12 13 12 11 11 11 11 11 11 11 9 8 8 7 6 5 6 6 6 6 6 5 5 5 3 4 4 3 3 4 4 3 7 12 10 6 7 10 11 10 9 8 8 6 7 7 6 6 6 7 6 4 5 4 5
3 0 3 3 11 12 12 13 15 11 10 9 7 5 8 6 5 5 7 6 1 2 9 16 22 24 24 23 22 20 20 19 19 18 17 16 15 13 13 13 12 12 11 12 12 11 11 12 12 11 11 9 9 8 9 8 7 6 5 5 5 5 5 5 5 4 3 3 4 3 5 5 5 4 4 3 4 5 5 5 4 4 4 4 5 3 2 3 4 3 3 5 4 6 5 7 6
6 6 6 5 8 10 14 14 16 13 11 10 9 8 8 4 5 3 7 5 4 5 5 17 21 22 24 24 22 20 20 20 19 17 17 17 16 14 14 13 13 11 11 10 13 13 12 11 12 11 11 10 9 7 7 8 9 7 7 5 5 4 3 4 5 4 3 3 4 4 5 6 5 5 3 4 3 2 4 3 3 3 3 3 1 2 2 2 1 3 3 5 5 6 9 3 2
2 1 6 8 11 10 15 13 16 15 11 11 8 7 9 5 6 3 4 2 2 5 12 18 19 21 22 22 20 20 20 19 18 17 17 17 16 15 14 13 12 12 10 11 11 12 12 12 12 11 10 9 8 6 6 5 5 6 6 7 6 4 2 3 4 4 2 3 4 3 6 5 5 5 5 4 3 2 2 1 2 0 1 1 1 2 3 2 2 2 3 3 7 3 3 1 2
7 3 9 11 5 7 20 16 18 14 15 10 8 11 6 7 7 5 3 5 5 8 11 16 19 20 21 21 20 20 19 19 18 17 16 16 16 15 14 14 12 11 11 13 11 12 12 13 12 11 10 9 7 7 6 5 3 5 6 7 6 5 4 5 5 6 5 3 4 4 4 4 4 5 5 5 2 1 1 2 3 2 1 0 1 2 2 3 2 3 6 5 1 1 6 2 2
5 8 7 3 3 3 18 18 16 18 13 11 12 10 8 6 6 7 6 6 8 6 10 13 19 20 19 20 20 20 19 18 17 16 15 13 15 15 14 11 13 11 13 13 11 12 14 13 12 13 12 11 9 8 6 5 4 4 6 6 6 11 9 9 10 7 3 2 2 2 2 5 4 4 4 4 3 2 1 1 2 2 1 2 3 2 3 4 5 4 2 2 1 2 2 3 1
5 6 10 3 1 1 13 16 18 15 12 12 11 9 8 6 7 4 3 5 6 7 14 13 19 19 19 19 19 18 17 17 16 17 15 14 15 16 14 12 12 12 12 12 11 10 13 13 13 13 13 11 11 9 5 5 5 4 6 8 7 10 8 6 10 9 9 5 3 1 2 2 5 4 4 5 7 6 3 2 3 3 5 4 4 4 2 2 2 1 1 2 2 1 2 2 1
10 11 7 6 4 4 7 22 14 13 16 14 11 9 7 6 6 2 4 8 5 9 19 20 19 19 18 17 17 17 17 17 17 14 14 14 13 14 14 13 13 13 12 12 11 9 11 12 12 12 11 10 10 9 8 7 6 7 7 6 5 4 5 6 5 7 8 10 6 2 2 3 7 3 4 6 4 4 4 5 4 4 5 3 1 1 2 0 0 1 1 2 1 2 2 1 2
3 5 5 7 4 8 9 17 15 13 12 11 9 7 4 4 3 4 8 9 7 14 18 18 18 18 17 19 17 16 15 16 14 15 16 15 13 12 14 11 13 14 13 12 10 9 12 14 12 12 10 9 9 12 10 9 10 6 5 4 5 5 5 6 3 4 6 7 9 6 3 4 4 3 3 6 7 2 3 2 3 3 2 2 2 3 2 3 3 1 0 2 2 3 3 1 1
2 4 4 5 8 9 4 16 11 11 13 13 11 9 4 6 5 6 11 11 12 18 18 18 18 17 18 18 16 15 15 14 14 13 14 12 12 13 14 13 14 12 11 12 12 12 13 14 12 12 11 8 8 10 8 8 7 8 5 5 5 6 3 3 6 6 6 6 6 9 4 6 4 6 5 3 6 6 5 5 3 2 2 2 2 3 3 2 3 2 1 2 1 2 2 1 3
5 6 5 8 8 8 12 15 13 13 11 14 14 6 7 8 6 3 7 7 7 17 18 18 16 17 17 17 15 15 14 14 13 12 12 12 12 13 14 14 15 12 10 10 13 13 11 10 9 10 10 9 8 8 6 6 6 5 5 5 4 3 4 2 4 6 5 5 5 6 4 6 7 5 4 3 2 3 2 1 2 1 2 2 2 2 2 2 1 2 2 3 1 2 3 2 1
9 8 7 6 4 4 13 10 14 12 11 14 5 3 2 8 8 4 4 4 8 17 17 17 18 17 16 16 15 14 15 12 14 14 14 13 11 12 13 14 14 13 10 12 12 12 12 10 9 9 9 10 9 8 8 6 6 6 6 5 4 4 5 4 6 6 4 5 5 5 5 5 3 4 4 2 3 2 2 3 2 2 1 2 2 1 2 2 2 2 2 2 1 3 1 2 1
6 8 9 6 6 5 12 12 9 13 9 13 10 7 9 11 10 8 4 5 9 12 15 18 16 16 16 15 15 15 14 14 15 15 15 15 13 12 13 14 13 14 13 12 11 11 13 11 10 11 11 10 8 7 6 5 5 5 5 6 5 2 3 3 5 6 6 4 4 4 4 5 5 4 4 2 0 2 2 2 2 3 2 2 4 3 1 3 1 1 1 2 2 1 2 3 2
9 10 6 8 6 7 8 10 6 12 14 10 7 2 3 6 13 9 8 7 7 2 14 15 18 18 16 15 14 14 15 15 15 14 16 14 12 12 12 13 12 13 13 13 11 12 11 12 9 12 12 9 9 9 6 4 4 5 5 6 9 5 3 3 5 4 5 5 6 5 4 4 5 4 3 2 3 2 4 3 3 3 3 2 2 2 1 1 1 2 1 3 2 2 4 4 2
9 10 8 7 11 10 10 12 8 12 11 8 6 6 3 1 14 9 9 4 1 1 7 8 15 15 16 15 14 14 14 13 14 13 16 14 11 13 13 11 14 13 13 13 13 12 12 11 10 10 10 10 8 6 5 5 5 3 4 3 6 6 7 4 7 5 5 5 4 5 5 4 4 4 2 3 3 2 3 3 2 3 2 2 2 3 3 2 0 2 1 3 2 3 4 1 1
9 10 10 9 10 11 15 12 10 11 9 9 9 8 5 8 10 6 9 4 4 4 6 8 4 16 14 16 14 16 15 14 15 13 17 14 14 14 12 11 14 12 12 13 12 10 10 9 8 9 10 9 8 7 5 5 5 4 4 5 6 4 3 3 3 5 6 4 6 7 5 4 5 4 3 3 2 2 2 2 3 3 2 2 2 2 2 4 3 2 3 2 2 2 5 2 2
13 13 10 9 8 8 12 12 15 15 11 7 11 9 11 10 8 5 9 9 6 4 4 3 7 11 14 14 15 15 14 15 14 14 17 13 13 14 13 11 12 11 11 11 10 9 10 8 9 8 8 9 8 7 5 5 5 4 5 4 5 5 3 6 4 5 5 5 6 7 4 4 5 3 4 5 2 1 2 3 4 3 3 2 2 2 0 3 3 2 2 1 2 2 2 4 1
12 11 10 10 11 9 15 16 15 7 9 8 9 9 11 14 11 10 12 9 8 7 8 5 8 5 12 13 14 16 15 15 15 15 16 14 15 14 13 11 12 12 10 12 10 11 12 9 10 9 8 8 7 6 6 5 5 4 4 6 6 6 4 2 5 5 4 4 7 6 4 5 4 4 4 4 4 3 1 4 2 1 2 2 2 1 2 1 3 2 2 2 2 2 2 5 2
18 12 10 8 10 7 11 16 15 14 8 7 11 9 7 13 10 9 10 11 10 8 9 8 10 4 1 7 14 16 15 13 17 14 15 16 13 16 14 11 12 14 11 12 11 10 10 12 11 10 8 8 7 7 5 5 5 4 5 5 6 5 5 4 4 6 7 7 6 7 5 6 5 5 4 2 4 4 2 3 3 2 3 2 2 2 2 2 2 2 2 2 1 3 1 1 4
14 10 10 10 8 5 21 18 14 9 6 6 12 11 7 9 16 13 12 10 6 7 10 9 7 4 5 5 6 10 15 15 16 16 17 15 16 17 13 12 12 14 14 14 11 10 11 9 9 8 7 8 7 7 6 4 5 4 4 4 5 5 4 5 5 5 5 9 7 6 4 5 6 5 6 4 3 3 3 2 3 4 1 3 2 2 1 3 2 4 2 1 3 2 2 3 2
9 8 8 10 8 11 11 20 24 16 10 9 11 11 10 10 11 12 11 12 10 10 10 8 7 10 7 7 7 8 14 15 17 17 17 16 16 15 14 12 12 13 12 13 13 11 11 8 9 7 7 7 7 6 6 5 5 4 4 3 3 4 5 4 3 4 3 8 8 7 4 4 4 5 7 6 5 4 4 2 1 5 3 3 2 1 0 2 2 2 1 3 1 2 2 2 2
10 11 10 6 6 11 10 9 19 21 13 14 14 9 8 11 10 9 10 11 10 12 13 10 7 4 5 5 10 11 13 13 17 17 17 16 16 16 15 12 14 13 13 13 13 12 10 12 10 8 7 7 5 7 6 5 4 4 2 3 2 2 4 3 4 4 5 4 7 6 7 5 4 3 4 5 6 5 5 4 3 2 4 4 3 3 2 4 2 2 2 1 2 2 1 2 0
7 13 13 8 12 13 9 9 10 10 11 11 15 7 8 11 12 11 13 12 11 11 13 12 10 7 5 11 11 8 9 12 14 18 17 17 16 15 15 14 15 14 13 13 13 13 12 11 11 8 7 6 7 7 5 4 4 4 3 4 4 4 4 4 4 4 6 5 6 7 8 7 7 4 3 5 5 4 5 5 4 3 3 3 0 0 1 5 3 3 3 2 1 3 3 2 2
8 11 14 14 11 16 14 10 7 8 7 16 18 9 7 9 11 12 13 14 15 15 15 12 11 6 6 7 10 11 10 11 14 15 16 16 16 15 16 15 15 15 14 14 12 13 12 12 11 9 8 6 7 7 6 5 5 5 4 5 5 4 4 3 3 3 4 4 4 5 6 6 6 6 5 5 4 4 4 4 5 3 1 5 5 4 5 3 2 1 3 2 2 3 2 2 5
9 6 17 16 16 17 9 8 10 6 7 15 21 7 12 10 10 12 13 15 16 16 15 13 8 9 9 9 11 12 12 8 10 14 16 16 16 15 16 15 15 15 15 15 14 14 11 11 12 10 8 7 7 8 6 5 6 5 6 5 5 5 6 3 4 3 3 4 3 5 6 5 5 5 4 6 5 5 3 4 3 3 2 2 1 1 2 0 2 1 3 3 1 2 1 3 0
7 9 5 13 18 9 6 9 10 10 10 5 12 10 10 7 6 6 11 10 14 13 15 9 9 9 9 12 10 8 7 9 10 9 11 12 15 17 16 15 15 16 16 15 14 12 11 12 12 10 9 7 7 10 7 7 6 6 6 5 5 4 5 5 3 3 2 3 3 3 4 4 4 5 3 5 4 5 4 3 3 3 2 0 2 2 2 2 3 3 3 2 2 2 2 2 1
14 7 18 17 13 7 8 8 11 11 9 9 11 13 7 9 7 5 4 9 9 10 14 15 16 13 15 14 10 9 8 7 9 8 9 10 16 16 15 15 15 14 14 14 14 14 14 12 13 11 10 8 8 11 8 8 7 6 6 5 5 5 4 5 4 4 2 3 3 4 3 4 4 5 4 4 4 4 5 4 3 5 4 3 2 3 2 3 1 2 3 3 2 2 1 1 3
6 9 8 3 12 10 10 5 5 5 9 8 13 14 10 7 9 8 8 6 8 9 8 9 11 16 15 13 15 15 11 10 6 5 8 12 15 15 16 15 14 13 11 13 13 13 14 14 13 12 11 9 9 11 9 9 8 7 6 5 5 6 5 4 4 5 3 4 3 4 4 3 2 5 6 4 5 6 5 5 5 5 4 3 1 1 2 4 5 4 4 2 2 3 3 1 1
10 6 10 8 2 6 8 6 6 7 8 11 14 15 15 10 10 10 8 11 11 9 9 13 12 13 9 8 12 13 12 9 8 8 12 9 9 12 12 13 14 10 12 12 11 11 13 12 13 12 11 10 10 11 10 10 8 8 6 6 6 5 5 5 5 5 5 5 4 4 4 5 3 4 4 6 5 7 5 4 4 5 4 3 3 3 2 1 2 1 3 2 1 1 1 1 1
12 8 7 6 8 6 10 8 12 10 9 9 14 12 7 6 9 10 11 12 14 13 10 12 12 11 13 10 6 11 9 10 11 8 7 9 8 7 11 9 8 9 6 11 11 8 12 13 14 13 12 11 10 12 11 10 9 8 7 7 6 5 5 5 5 5 5 5 4 4 4 4 5 4 4 5 5 6 5 5 4 6 4 3 2 1 2 1 2 4 0 3 3 2 1 1 2
11 10 9 9 10 10 8 11 7 8 12 15 13 13 6 11 10 9 10 9 10 10 8 12 11 12 8 7 8 7 9 11 11 10 7 5 5 6 8 6 8 7 10 11 12 9 9 11 12 13 13 10 9 11 11 11 10 8 7 7 6 5 5 5 5 5 6 5 5 4 5 6 4 5 4 4 5 6 6 5 4 5 5 4 4 3 3 3 4 2 2 2 1 2 2 2 2
10 10 11 9 9 8 9 9 11 11 7 14 14 15 11 12 8 11 11 10 10 8 7 11 15 11 6 6 6 7 10 10 9 7 7 6 4 4 5 8 10 10 12 12 9 10 8 9 11 12 12 11 10 10 10 11 9 9 8 7 6 6 6 6 6 5 6 6 7 6 5 5 5 5 4 5 4 3 4 5 5 5 5 6 7 6 5 2 4 3 0 2 1 1 2 2 1
12 10 8 11 12 8 10 10 11 10 10 10 9 3 8 8 11 10 10 11 11 10 11 12 13 13 6 3 5 5 8 8 4 6 4 4 5 4 3 2 1 4 9 9 10 9 10 9 11 11 11 11 10 10 10 10 9 8 9 8 8 8 6 6 5 5 5 6 6 6 5 4 5 5 5 5 6 6 5 6 6 5 5 5 4 4 3 3 3 4 3 3 2 1 2 2 3
10 11 13 11 8 12 8 6 10 11 8 9 10 10 13 14 11 12 11 13 12 9 13 12 15 15 10 5 3 3 2 3 5 5 5 5 6 7 5 4 2 4 7 5 7 8 2 5 7 3 2 4 10 10 10 9 9 9 9 9 9 8 9 9 9 9 9 7 5 5 6 7 4 3 6 6 6 5 4 5 5 6 5 5 5 4 4 3 3 3 3 2 2 4 3 3 2
5 13 11 9 12 13 8 8 9 11 11 9 13 17 14 13 10 10 14 14 12 11 8 10 9 13 12 9 9 7 3 3 4 4 4 9 8 6 6 7 6 6 6 5 9 5 3 3 2 6 6 9 10 11 10 10 9 9 9 9 9 9 10 11 9 9 9 7 6 5 6 7 6 6 6 7 5 6 5 6 5 4 5 4 5 5 4 4 4 3 3 2 2 3 1 2 4
9 7 5 13 10 12 8 6 10 10 11 7 13 20 13 12 13 14 15 16 14 11 12 9 10 9 7 7 10 7 12 10 3 7 6 7 8 7 7 6 5 7 10 7 9 8 8 7 12 10 10 10 11 9 9 7 9 9 9 10 11 10 9 9 8 7 7 7 9 7 8 6 8 6 4 3 7 6 5 5 4 4 4 5 4 4 5 4 5 4 5 5 4 4 4 4 3
12 10 10 8 9 9 10 9 5 6 7 10 8 9 7 7 11 16 15 14 12 14 11 11 8 8 7 6 6 6 10 8 8 11 8 6 7 8 4 5 8 9 10 8 6 5 6 6 8 9 8 8 6 7 7 6 8 8 7 7 9 7 8 8 7 7 9 9 8 8 9 9 8 7 5 5 4 6 6 7 7 7 7 7 6 5 6 5 4 5 4 5 5 5 4 4 4
12 9 7 6 8 5 9 8 10 9 4 5 9 5 5 5 5 10 14 12 11 13 12 11 10 9 8 5 6 5 7 12 7 11 10 5 3 3 5 5 4 8 10 13 9 8 7 6 7 7 8 6 7 5 2 1 5 5 4 2 4 8 12 9 11 9 9 8 8 8 9 7 6 6 6 7 6 5 7 7 7 7 7 6 5 5 5 5 5 4 4 3 4 6 5 4 4
12 9 10 8 12 12 10 11 11 12 8 4 8 8 6 4 8 11 13 12 12 12 12 10 9 10 7 4 4 4 4 9 10 11 12 10 10 6 3 5 2 5 9 13 9 5 7 7 7 8 8 6 6 1 3 4 7 3 1 2 5 5 11 10 12 11 11 9 10 8 7 7 8 6 6 9 7 8 6 6 7 7 6 5 6 5 7 5 5 5 5 5 5 4 5 4 3
Wind_Direction
202 212 210 213 214 225 239 182 257 172 204 253 249 196 159 32 115 156 86 12 129 76 49 62 78 73 82 121 106 77 29 107 73 154 115 126 141 146 139 134 131 130 127 123 126 126 120 125 130 128 131 131 130 123 113 109 100 91 90 93 92 91 87 89 93 96 103 98 93 89 88 84 84 85 88 87 87 88 96 99 97 101 101 103 107 110 104 98 96 94 90 88 90 96 91 89 88
201 202 211 202 223 211 226 31 251 225 241 270 91 323 139 108 72 158 121 183 77 111 83 72 95 90 98 105 93 67 45 62 80 89 91 124 137 139 138 135 134 129 127 129 131 129 127 132 133 136 136 132 125 112 107 103 95 94 95 94 91 89 93 101 103 109 102 97 89 89 88 86 84 83 85 86 79 85 85 90 95 102 116 114 111 103 100 98 95 92 89 94 90 88 95 97 97
206 213 220 198 278 227 147 110 248 99 244 185 295 173 273 86 135 129 156 166 104 103 84 71 73 82 87 78 66 84 85 79 87 94 111 131 128 139 141 137 131 127 129 132 131 129 131 134 134 129 133 129 117 110 108 103 99 100 102 100 99 99 105 104 104 102 97 93 94 92 89 92 88 86 90 94 100 90 98 105 110 113 109 107 105 102 96 96 98 98 97 95 98 98 97 96 97
271 285 261 196 217 26 253 203 265 288 322 120 139 146 197 160 134 133 180 117 122 94 87 86 76 85 92 85 94 91 90 77 94 116 124 142 134 139 138 134 130 129 127 129 130 127 125 132 128 136 133 122 116 113 109 104 104 107 108 106 109 113 110 106 101 98 94 93 93 92 93 91 100 101 94 91 98 110 107 107 107 109 107 106 105 105 106 106 105 103 103 100 101 99 96 98 99
243 255 227 216 148 227 243 213 286 290 233 210 169 155 164 150 140 141 203 123 101 97 112 103 94 86 90 97 104 95 104 103 101 117 124 123 136 136 133 132 130 127 128 129 124 122 125 129 138 146 128 123 117 113 108 108 108 108 104 106 109 104 101 99 100 98 93 94 97 98 97 101 100 96 94 86 83 95 98 96 99 100 102 104 105 104 102 101 103 105 104 104 100 101 100 99 102
244 255 271 209 226 152 251 254 280 188 262 62 151 178 148 153 153 159 143 103 101 124 107 94 105 116 94 85 89 109 129 116 123 114 128 130 134 135 133 136 132 130 130 123 121 124 134 139 151 136 126 120 118 113 109 109 109 105 104 106 105 102 101 102 103 105 105 106 99 97 100 101 93 87 88 103 107 97 96 100 100 101 104 106 105 107 107 107 101 97 97 100 103 103 104 107 111
222 228 234 32 307 99 262 304 240 273 28 257 155 174 144 153 159 139 130 124 110 111 107 103 101 102 91 93 90 86 98 118 122 128 128 131 133 135 136 134 130 130 127 122 125 127 134 148 145 131 126 123 118 114 113 113 109 105 104 105 105 103 103 106 108 106 104 104 106 105 100 89 86 92 98 95 94 95 100 99 99 101 102 106 107 106 107 106 108 109 105 102 102 101 103 112 119
246 278 116 184 246 172 261 289 285 212 137 212 169 147 147 153 140 136 136 133 141 140 129 114 96 92 90 96 102 117 118 114 118 123 127 132 136 136 136 132 131 129 123 125 126 124 136 150 136 131 126 121 117 115 115 113 110 110 110 110 107 106 107 110 111 108 108 115 109 108 104 101 99 93 90 92 92 93 91 96 100 102 105 103 104 106 108 109 105 104 106 106 105 108 112 112 114
226 229 32 214 244 236 252 217 133 2 122 177 146 146 138 134 143 144 133 131 174 112 105 112 116 102 112 102 95 108 108 119 121 128 133 136 139 140 140 138 133 127 126 126 126 130 135 140 136 128 123 119 116 116 117 115 114 113 112 108 107 107 105 105 109 110 109 111 111 106 103 100 95 95 95 94 91 91 94 97 99 101 99 103 108 107 107 106 108 109 106 108 112 112 109 109 110
209 98 272 296 320 278 330 78 202 229 147 153 138 143 152 161 140 124 66 81 150 82 94 99 101 103 113 103 110 115 120 123 131 133 134 137 136 139 139 136 133 130 128 130 133 134 136 138 128 124 121 118 118 121 121 117 116 116 114 111 109 108 106 108 109 111 112 109 106 106 104 103 102 99 96 93 90 93 94 95 96 98 103 105 104 106 107 107 107 107 108 109 109 105 105 106 109
229 68 28 310 326 295 28 132 161 175 129 104 101 100 119 116 130 93 106 18 83 103 103 111 108 111 112 101 98 115 126 130 132 134 135 135 134 134 131 132 131 131 132 135 132 130 133 130 125 122 120 120 122 123 122 122 120 114 111 110 111 112 113 113 113 111 106 107 108 106 105 104 104 103 100 96 95 95 95 94 95 97 100 103 105 108 109 108 108 108 109 109 107 104 104 105 104
265 70 121 279 298 318 284 144 147 149 130 133 115 133 21 126 115 100 110 96 68 120 117 128 112 116 108 116 120 131 132 134 132 136 136 134 127 129 129 132 135 134 133 128 129 133 129 129 129 126 123 123 124 124 124 123 120 118 117 116 115 114 111 108 103 100 101 101 104 105 104 104 105 104 99 99 98 97 96 94 95 98 103 105 107 108 109 110 111 111 110 108 106 105 102 101 102
258 193 310 267 344 264 294 167 117 119 128 104 122 31 262 136 105 117 123 101 19 91 7 118 127 122 119 121 131 134 135 131 131 132 130 126 132 136 135 139 137 130 127 133 132 132 136 136 131 132 127 123 123 122 122 122 123 121 122 119 116 112 111 109 111 113 114 111 106 105 107 107 107 103 101 101 99 97 97 98 97 100 104 107 107 110 112 114 114 114 114 113 112 107 102 99 106
236 221 142 295 142 303 176 163 134 124 85 111 70 87 29 95 110 124 131 123 132 273 113 131 128 117 111 122 134 138 132 134 133 135 130 126 135 136 135 135 132 132 135 132 131 136 136 133 133 129 130 128 126 123 124 124 123 124 121 118 117 115 113 113 113 113 114 113 114 112 115 116 111 108 107 104 100 99 101 100 100 102 107 112 113 113 114 113 114 114 113 113 111 107 103 100 106
200 249 78 281 321 20 307 170 138 116 102 105 200 141 98 67 101 103 109 132 165 259 296 304 121 127 147 143 143 142 141 138 138 136 124 120 132 131 130 134 137 134 130 131 135 135 131 132 128 133 128 125 128 125 127 127 127 124 121 120 118 116 117 118 119 118 113 112 115 119 116 113 112 112 112 106 102 100 101 100 101 103 109 111 112 111 110 111 112 112 114 113 114 114 114 120 116
184 33 294 296 343 35 330 24 110 100 113 141 178 197 108 100 95 109 51 31 199 284 305 139 158 121 145 140 139 139 139 140 137 130 112 122 130 127 132 139 137 132 133 137 139 134 133 131 133 133 134 135 130 134 129 125 124 123 123 124 123 123 123 123 122 119 116 118 118 118 118 115 112 113 115 111 102 100 100 101 105 106 106 109 110 112 114 115 114 114 114 115 119 124 128 129 136
100 63 287 5 334 153 4 8 5 117 126 122 140 153 140 127 98 79 99 86 125 194 228 166 135 137 140 139 137 137 138 136 140 131 125 127 131 130 131 136 139 136 139 138 127 129 132 133 133 135 140 135 130 125 122 125 127 126 125 125 126 127 126 123 117 121 122 122 124 123 116 110 118 112 117 111 105 98 104 107 106 106 106 107 112 114 116 119 118 117 117 121 127 135 137 141 153
100 146 281 328 207 74 217 107 77 116 130 146 145 173 137 124 144 112 128 152 263 170 197 148 138 132 130 133 138 138 136 140 138 137 136 138 139 140 142 153 153 141 141 128 129 134 133 137 137 139 132 126 131 128 128 130 135 136 131 132 131 131 131 130 132 134 131 128 131 124 120 137 118 117 124 115 105 109 107 107 107 106 108 111 113 115 117 115 117 119 124 135 146 152 156 156 178
121 180 225 255 52 99 134 106 100 122 128 132 137 147 127 125 144 163 156 152 164 160 171 137 125 125 132 138 140 141 142 143 143 142 144 145 145 147 145 148 139 137 135 129 134 134 136 134 138 141 138 137 136 135 132 136 141 136 140 139 138 134 134 137 140 140 141 142 139 133 106 117 110 110 121 117 111 108 110 109 108 109 111 112 112 118 120 125 128 135 145 157 170 179 185 178 187
126 70 314 108 330 110 121 114 98 117 131 131 138 124 122 135 135 170 181 167 159 154 150 148 130 135 141 142 144 142 144 143 145 147 144 146 143 143 143 140 138 139 138 134 135 136 144 144 143 143 141 138 137 137 136 133 138 139 141 139 140 141 147 163 148 134 141 155 139 132 136 120 115 103 113 110 109 111 110 110 112 114 115 117 119 113 125 128 139 158 166 172 192 209 246 200 190
204 91 262 277 196 114 123 129 124 127 131 127 122 122 132 148 131 168 155 134 242 224 165 148 142 142 143 146 145 145 145 146 148 148 146 146 145 143 144 142 145 143 143 133 135 139 146 142 142 145 140 141 139 139 140 141 146 150 145 148 152 153 151 148 150 127 158 159 148 155 150 149 131 132 136 121 113 120 123 124 131 133 141 147 160 129 143 153 175 173 200 207 224 230 229 258 198
168 196 338 269 287 116 125 130 134 133 131 127 134 137 136 109 122 114 174 168 177 202 206 143 144 145 145 148 149 148 149 149 152 152 151 149 149 146 146 141 142 144 136 140 139 140 143 142 139 140 142 145 147 144 142 143 153 153 152 153 154 137 163 170 137 134 165 163 172 174 142 127 136 135 122 102 96 115 129 135 139 141 147 147 136 161 131 169 253 237 205 210 219 231 226 244 62
231 84 241 273 287 107 122 139 133 134 137 135 152 117 110 145 114 116 159 141 98 129 272 149 148 148 148 146 149 150 151 152 154 154 153 149 148 151 144 140 146 143 143 139 142 140 142 145 144 146 138 137 134 133 133 140 157 150 151 162 156 145 141 165 126 133 171 202 195 194 144 141 147 145 130 86 57 35 56 82 91 8 103 169 159 242 181 180 204 282 290 254 238 189 92 56 344
215 44 271 251 239 87 130 146 140 131 138 141 123 129 130 151 131 136 167 241 177 178 247 156 145 148 148 149 152 152 152 155 157 154 157 148 151 149 146 147 146 148 141 141 147 140 145 146 149 146 136 136 134 143 136 143 149 167 162 151 143 151 166 181 159 163 178 196 181 192 161 144 151 147 130 114 99 47 45 43 51 7 2 292 197 265 211 158 168 212 231 243 307 5 138 130 115
224 151 256 181 216 90 136 136 126 135 129 130 133 142 150 155 126 159 195 213 213 226 189 169 150 149 153 150 152 153 155 156 154 151 153 151 151 144 146 143 141 148 142 145 146 148 144 144 153 145 141 143 141 150 148 145 166 192 160 162 165 169 186 177 162 149 124 203 211 226 172 154 145 124 122 129 110 53 314 97 129 210 215 231 224 208 225 183 182 195 215 328 301 290 25 92 222
223 200 216 229 233 231 129 120 129 134 124 131 133 139 142 123 133 151 167 229 231 199 138 162 152 151 153 154 151 152 152 156 153 158 155 154 148 147 148 143 144 149 146 143 151 148 138 142 148 146 151 150 147 151 146 158 173 198 185 185 169 174 175 132 128 146 158 174 158 197 172 82 34 112 149 139 152 163 161 185 168 202 210 209 213 208 188 167 207 99 216 233 252 281 194 192 297
187 217 218 203 229 246 159 127 145 131 126 139 131 145 127 141 169 166 258 257 213 185 161 165 158 153 153 154 151 150 155 156 159 158 153 154 150 149 148 146 153 146 148 147 149 146 138 147 146 144 145 148 149 154 160 170 171 203 175 150 149 149 120 118 155 135 144 144 140 132 37 138 160 144 144 147 153 140 152 193 192 201 202 162 182 134 139 75 330 132 242 290 129 221 159 105 258
147 272 219 222 228 252 137 118 116 123 126 133 130 119 110 169 262 179 192 228 224 183 156 152 157 154 155 152 154 152 157 161 162 160 158 160 156 155 151 156 151 150 153 149 147 142 154 141 143 145 157 154 156 149 155 157 173 167 149 148 133 136 141 142 132 123 131 122 128 137 134 104 54 86 181 143 111 247 170 154 205 190 109 143 167 180 159 202 204 189 66 74 314 293 89 136 322
266 144 231 248 225 244 186 125 121 128 125 119 113 110 134 200 225 167 165 181 218 170 156 160 159 157 155 154 154 162 158 164 158 156 161 155 159 152 154 158 147 153 148 147 149 157 159 141 144 151 151 145 151 144 148 146 144 151 154 138 131 147 132 130 136 125 106 110 117 115 148 81 56 167 216 140 148 154 150 164 218 136 168 173 207 118 78 35 16 353 320 257 189 352 333 209 140
233 182 237 234 230 230 102 112 110 123 129 135 158 130 203 192 182 132 162 179 213 164 160 164 159 159 158 155 155 161 159 158 160 157 159 154 166 153 154 155 146 155 144 143 155 163 150 137 148 147 143 149 146 140 141 144 150 147 143 133 152 116 98 109 111 110 118 117 115 118 126 133 161 130 115 130 149 118 105 141 123 120 208 184 88 100 145 157 52 256 258 290 347 44 284 277 55
211 213 206 236 249 211 119 120 128 117 130 168 183 84 220 198 137 191 186 205 232 167 167 163 158 159 157 155 159 157 159 157 160 159 157 152 163 157 155 151 152 149 139 150 164 155 131 143 151 141 149 148 157 137 154 148 153 148 142 146 140 129 150 173 127 120 119 115 119 111 127 121 122 106 104 143 156 113 135 122 202 139 134 113 129 145 222 198 191 230 189 265 332 218 142 46 56
223 233 203 217 222 149 124 118 137 134 147 170 170 181 179 181 161 153 166 136 304 176 169 161 161 158 159 154 158 156 157 165 159 166 153 162 167 158 158 149 155 143 148 156 158 140 139 146 153 144 150 156 136 147 143 158 149 145 141 148 130 145 106 86 101 129 123 124 119 122 123 137 115 128 126 103 341 116 105 162 138 165 145 227 166 150 230 165 183 305 356 311 83 345 231 164 150
205 229 208 206 219 172 120 133 166 138 146 173 206 137 125 163 141 152 153 166 192 302 177 165 163 162 159 158 160 157 158 172 159 167 154 170 162 158 154 150 151 146 147 160 148 143 145 148 152 149 152 147 139 144 139 148 136 137 142 155 139 130 106 112 128 128 140 148 142 137 146 127 135 126 112 125 75 153 155 164 153 139 156 170 132 138 152 89 256 139 346 274 161 338 305 121 126
207 194 239 180 222 196 147 132 153 146 151 175 178 114 172 154 130 152 121 117 324 167 308 181 167 165 160 161 163 160 162 168 161 167 158 167 159 155 151 157 144 152 146 155 149 151 150 149 156 150 147 143 139 135 142 146 138 138 166 146 122 124 154 169 134 142 150 142 147 130 135 139 110 122 127 93 102 138 108 124 154 125 139 116 195 142 178 177 60 36 240 345 357 14 321 348 100
197 189 210 208 202 248 141 165 167 151 168 159 137 133 207 157 115 122 106 121 169 175 219 256 203 170 165 162 167 164 165 170 161 170 161 164 161 156 149 160 144 151 152 152 153 149 143 156 144 138 146 146 143 142 153 150 140 170 165 153 130 110 135 134 137 156 145 150 142 133 142 127 131 143 148 95 81 72 109 192 118 145 144 75 7 6 42 41 44 13 277 135 323 213 227 339 55
222 196 199 213 215 201 145 137 159 162 160 158 145 160 158 127 138 185 131 164 170 147 231 313 298 193 168 168 168 166 167 170 161 172 160 165 158 159 149 162 148 150 154 148 148 152 138 157 139 144 149 146 147 148 163 154 159 176 164 155 143 153 157 152 172 143 143 143 139 133 125 136 138 139 124 116 113 125 194 126 125 165 110 116 113 281 139 144 154 177 298 119 259 293 52 342 232
252 242 204 208 218 209 164 142 146 159 143 155 162 151 151 138 153 167 150 159 157 145 143 216 273 219 175 175 172 168 170 167 164 174 161 162 160 159 153 158 154 153 149 148 156 155 150 154 147 153 150 149 157 160 172 162 166 187 157 166 160 154 144 159 146 150 127 157 143 138 145 143 143 141 133 136 153 177 151 116 92 118 110 121 91 98 139 195 110 148 228 7 253 181 247 195 66
269 279 303 263 212 231 134 131 144 159 158 174 135 138 135 136 151 165 157 162 171 171 149 179 196 273 235 205 174 172 172 165 169 171 165 160 167 161 157 162 159 157 151 157 164 160 155 155 157 158 155 152 161 168 178 168 163 181 162 170 166 159 153 167 155 153 163 142 120 142 165 155 155 152 133 133 164 131 151 128 129 157 140 128 131 186 174 131 137 29 50 278 187 278 230 8 50
250 256 242 279 209 180 121 142 154 172 159 159 154 133 186 151 149 173 169 169 167 164 170 167 175 146 188 273 312 184 174 172 172 173 169 164 171 163 161 166 163 158 156 165 163 159 158 154 156 162 152 158 164 167 180 170 167 175 175 169 184 155 160 168 158 138 173 135 148 137 164 139 155 153 155 164 145 143 127 107 143 88 259 154 172 168 205 145 184 172 169 187 267 155 251 80 121
257 254 254 262 196 184 167 158 152 170 177 164 165 154 149 156 154 163 173 170 167 172 171 167 169 175 187 219 201 217 186 170 177 172 174 168 174 164 165 169 165 160 160 166 167 164 166 146 154 163 159 165 167 155 181 166 171 181 179 168 190 157 157 154 141 151 152 147 151 143 145 165 161 159 163 157 137 159 158 126 95 133 199 102 127 101 238 247 197 124 164 248 67 298 116 136 155
227 258 247 255 237 184 223 162 152 165 169 157 180 158 144 150 157 166 177 176 157 167 180 170 180 165 180 211 223 214 193 178 179 176 176 173 176 168 168 172 170 165 168 168 172 170 171 159 156 172 161 165 173 149 186 156 173 155 161 164 151 131 138 169 158 163 147 163 150 158 157 164 154 175 167 149 149 164 128 150 159 208 149 160 169 181 219 229 179 179 134 190 88 306 79 64 297
216 232 246 202 218 246 206 132 183 199 160 170 175 166 155 167 159 173 161 168 168 171 173 172 175 190 169 195 216 202 233 184 183 179 177 178 175 170 167 175 174 168 173 170 177 172 170 162 160 168 162 155 180 157 182 157 148 148 178 159 144 162 182 157 178 169 153 174 169 163 152 169 154 165 166 145 141 143 136 145 170 167 166 107 225 356 156 267 139 227 140 85 252 142 34 334 125
218 208 234 253 201 210 234 158 203 204 195 169 193 175 143 161 163 168 178 162 165 176 169 179 169 172 184 223 190 192 197 199 185 183 180 183 178 174 169 178 177 173 176 170 182 172 169 162 158 172 165 162 176 155 187 147 148 162 177 176 164 172 162 183 166 182 165 162 175 164 143 167 154 168 159 138 161 142 146 168 143 196 169 158 172 206 218 232 144 118 144 125 12 39 74 18 7
222 210 191 228 245 252 229 191 217 257 224 182 190 206 140 161 149 169 187 170 171 172 172 159 164 170 185 211 193 181 190 196 194 190 185 186 178 182 176 179 182 177 175 174 182 173 165 158 160 170 167 169 172 157 183 163 159 176 173 182 179 165 180 186 170 206 175 185 152 163 151 153 171 147 174 132 167 154 166 160 141 114 109 298 45 110 38 182 3 3 59 97 96 35 38 95 4
229 226 192 220 236 255 257 250 212 224 235 221 177 202 151 144 120 144 168 131 179 170 126 135 153 189 214 194 189 170 182 195 190 188 198 195 178 183 178 181 187 179 177 175 184 169 158 157 158 171 167 173 166 158 177 169 171 180 179 187 173 186 179 168 183 202 184 173 152 134 147 146 150 131 170 152 170 163 152 154 160 115 113 20 243 176 157 200 199 173 120 183 146 166 226 127 88
239 287 295 207 210 217 251 241 230 214 221 254 201 179 208 133 141 132 131 163 165 170 144 167 170 181 212 187 161 185 192 195 194 191 201 217 186 183 184 182 192 184 179 175 180 173 163 158 160 172 167 177 165 162 176 174 175 180 184 197 175 187 195 159 168 193 144 174 162 161 121 119 168 143 164 174 169 159 156 172 168 160 150 192 227 104 252 181 115 174 158 183 172 158 3 150 189
241 209 293 180 187 196 220 243 219 248 231 239 230 180 217 137 166 180 166 171 175 158 153 157 175 169 183 184 168 185 177 188 173 196 212 208 198 187 179 189 194 189 176 180 180 174 169 164 166 173 170 174 168 164 176 176 179 179 185 204 187 187 182 151 176 166 161 141 218 162 141 180 190 163 168 171 174 177 163 173 178 157 176 140 145 124 262 218 173 176 167 174 160 156 201 210 248
210 199 240 196 233 242 213 217 240 229 232 228 225 207 162 130 157 171 169 144 165 165 164 161 167 179 174 178 184 173 169 165 171 201 208 207 199 178 180 185 191 190 177 170 175 170 168 158 167 174 171 178 169 167 177 180 183 180 186 199 195 187 184 168 189 176 162 173 194 182 161 165 201 184 173 160 192 180 164 184 192 136 138 146 163 187 248 329 352 133 62 150 158 145 217 230 333
220 195 196 191 187 198 210 211 214 222 243 212 235 236 222 56 129 136 154 160 141 158 179 158 166 167 174 176 166 170 163 183 174 190 185 187 195 195 179 201 172 181 153 166 166 170 167 162 164 176 174 182 172 170 179 179 185 184 187 189 194 189 199 172 187 176 170 178 189 187 165 183 167 207 167 168 185 197 155 185 182 142 157 165 163 75 134 291 124 17 205 193 171 169 205 214 214
212 218 175 216 200 188 227 208 234 225 232 266 242 222 102 125 120 137 143 142 123 119 132 145 159 159 169 166 173 174 180 182 188 185 176 178 199 184 178 170 181 174 172 170 175 166 162 168 166 176 174 183 172 174 179 181 185 184 189 185 188 191 192 177 185 188 186 178 189 192 187 184 200 193 184 176 189 198 163 177 187 158 161 159 151 185 201 195 118 110 306 291 129 245 184 179 222
211 234 191 210 220 191 205 219 213 225 224 227 253 235 140 146 153 131 126 109 115 128 123 113 118 142 140 146 160 177 189 178 178 175 168 180 208 200 171 186 194 186 174 187 166 171 158 165 168 172 175 181 177 178 180 184 184 186 188 187 189 187 192 193 190 196 179 185 193 200 190 182 187 197 183 173 179 194 170 171 185 174 168 165 168 191 175 188 132 136 77 305 33 310 266 196 235
196 219 218 208 217 203 218 196 212 201 216 213 220 72 100 90 133 124 122 122 113 135 132 106 103 85 95 145 174 187 176 167 154 161 154 173 196 222 124 107 89 183 164 192 178 163 173 160 164 177 178 180 178 180 183 187 184 186 184 194 189 189 190 193 194 201 187 189 193 191 183 221 192 172 191 170 177 200 177 173 177 191 165 172 175 178 172 165 183 150 182 217 205 230 280 227 202
188 214 217 223 236 245 226 245 239 226 211 224 104 125 108 125 134 143 133 130 124 111 120 124 113 122 133 139 166 149 168 177 167 170 171 183 213 197 181 166 158 63 65 54 20 339 318 149 139 119 128 194 189 185 183 190 186 184 190 193 195 194 193 197 198 198 202 194 201 192 179 204 216 187 179 181 189 176 181 174 181 193 172 168 181 175 175 172 158 153 190 189 208 237 232 264 249
238 207 215 237 250 270 268 242 197 223 221 189 134 132 149 153 139 153 145 130 123 121 111 118 137 132 131 117 96 141 211 293 250 204 174 191 201 196 174 178 167 145 107 121 101 107 101 330 201 144 179 207 210 192 191 192 187 193 190 194 201 199 199 202 200 195 204 194 203 198 195 185 198 211 206 180 184 177 175 184 184 200 168 190 188 179 179 175 155 186 177 203 193 239 194 297 277
240 222 176 219 199 229 243 287 240 208 214 209 134 142 155 158 138 161 149 140 132 121 116 120 115 108 98 115 73 25 135 144 131 157 188 203 194 190 170 140 110 106 131 169 148 148 169 175 128 147 197 226 201 192 202 195 192 200 196 198 202 205 206 203 206 191 198 202 205 195 212 189 191 207 195 178 172 181 183 180 182 187 178 180 195 192 170 184 173 177 192 199 213 224 188 215 217
249 296 288 278 288 230 221 210 258 276 217 210 135 173 132 113 149 156 137 130 134 122 108 99 93 78 70 100 89 33 116 134 121 134 182 223 215 202 133 147 154 147 146 118 108 160 185 177 144 165 192 194 185 214 179 213 221 212 206 198 201 211 210 208 204 192 197 208 209 198 209 201 194 195 196 188 190 183 187 187 193 198 192 192 187 204 190 184 189 200 199 213 199 205 211 216 231
205 224 258 230 238 275 249 206 229 234 255 245 126 143 95 25 90 124 116 110 121 108 98 93 93 70 68 45 59 51 66 107 121 99 92 103 159 157 143 166 156 163 135 123 170 201 184 162 158 156 175 165 177 196 186 297 271 225 223 345 286 234 211 214 208 202 198 202 201 209 200 217 189 199 196 184 198 205 183 187 194 195 203 187 185 187 200 179 185 197 211 228 211 198 205 203 216
217 215 229 221 200 213 223 236 202 223 222 230 186 109 126 110 117 129 118 111 110 115 113 110 104 104 111 109 76 71 133 127 104 73 56 56 68 92 29 6 283 155 125 123 135 174 187 180 179 175 169 174 172 122 309 233 209 167 124 147 171 307 272 216 212 206 205 200 199 204 199 204 202 198 204 193 188 206 210 185 201 192 201 196 175 182 196 195 182 192 207 216 229 183 214 222 210